User: anonymous   Login
Location: Newark
(22.8000°N, 86.1800°E)
Time: 08:16:30
(UTC+00:00)
Language:

AO-91 - Orbit

View from above orbital plane
View from above orbital plane
View from above satellite
View from above satellite

Ground track
Ground track

The orbit data is extracted from the following two-line orbital elements,

1 43017U 17073E   20157.75277965  .00000559  00000-0  48097-4 0  9997
2 43017  97.7237  70.4405 0258551  88.4844 274.5966 14.78923263137436
Epoch (UTC): 05 June 2020 18:04:00
Eccentricity: 0.0258551
inclination: 97.7237°
perigee height: 451 km
apogee height: 814 km
right ascension of ascending node: 70.4405°
argument of perigee: 88.4844°
revolutions per day: 14.78923263
mean anomaly at epoch: 274.5966°
orbit number at epoch: 13743

The dashed part of the orbit path shows where the satellite is in the earth's shadow,  

DLR